Location: Lane
(33.5226°N, 79.8788°W)
Time: 20:19:44
(UTC+00:00)

Explorer 11/Cluster Stage 4 - Pass Details

Date: 06 October 2022
Orbit: 466 x 1247 km, 28.8° (Epoch: 01 December)

Event Time Altitude Azimuth Distance (km) Brightness Sun altitude
Rises 14:49:44 0° 236° (SW) 4,051 10.1 39.3°
Reaches altitude 10° 14:52:40 10° 230° (SW) 3,148 9.7 39.8°
Maximum altitude 15:00:11 43° 162° (SSE) 1,676 10.0 40.9°
Drops below altitude 10° 15:07:40 10° 94° (E) 3,143 10.3 41.9°
Sets 15:10:36 0° 88° (E) 4,045 10.6 42.3°
